[TLELIST] Archives

 

Current TLEs <02 MAR 2006>

March 2nd 2006 PDT

HST 1 20580U 90037B 06061.30668183 .00000489 00000-0 25405-4 0 5573 2 20580 28.4688 26.5976 0003899 132.7492 227.3428 14.99973985669031 ISS 1 25544U 98067A 06061.84366882 .00014428 00000-0 10330-3 0 4532 2 25544 51.6439 14.5154 0008120 319.2058 83.0555 15.73974503416404 CHANDRA 1 25867U 99040B 06062.00000000 .00000000 00000-0 00000+0 0 8969 2 25867 58.8515 98.9652 5754538 292.9203 0.9190 0.37807526 1216 Decay date for Floating Pote ...Continue Reading

Current TLEs <28 FEB 2006>

February 28th 2006 PDT

HST 1 20580U 90037B 06059.17749673 .00000405 00000-0 18781-4 0 5554 2 20580 28.4685 40.4760 0003664 112.2948 247.8023 14.99972036668711 ISS 1 25544U 98067A 06059.38423057 .00013422 00000-0 96726-4 0 4375 2 25544 51.6439 27.1446 0008104 309.5375 187.7179 15.73898171416011 CHANDRA 1 25867U 99040B 06059.33333333 .00000000 00000-0 00000+0 0 8958 2 25867 58.8276 99.0901 5747411 292.8676 357.9718 0.37802577 1216 Decay date for Floating Pote ...Continue Reading

Current TLEs <25 FEB 2006>

February 25th 2006 PDT

HST 1 20580U 90037B 06056.18332486 .00000489 00000-0 25358-4 0 5530 2 20580 28.4683 59.9887 0003720 78.8035 281.2971 14.99970731668265 ISS 1 25544U 98067A 06057.02296567 .00012186 00000-0 88492-4 0 4229 2 25544 51.6430 39.2672 0008290 300.3599 129.1493 15.73829329415646 CHANDRA 1 25867U 99040B 06056.66666667 .00000000 00000-0 00000+0 0 8949 2 25867 58.8310 99.1547 5734852 292.9077 354.9586 0.37786503 1213 FLOATING POTENTIAL PROBE 1 28 ...Continue Reading

Correction: Current TLEs <21 FEB 2006>

February 21st 2006 PDT

HST 1 20580U 90037B 06051.45917610 .00000411 00000-0 19293-4 0 5506 2 20580 28.4680 90.7772 0003598 28.0038 332.0786 14.99967051667552 ISS 1 25544U 98067A 06052.34767361 .00013949 00000-0 97127-4 0 3934 2 25544 51.6421 63.2734 0007415 308.6263 249.9177 15.74668600414901 CHANDRA 1 25867U 99040B 06051.41666667 .00000000 00000-0 00000+0 0 8925 2 25867 58.8126 99.1855 5726557 293.1355 0.0942 0.37796747 1211 FLOATING POTENTIAL PROBE 1 28 ...Continue Reading

Current TLEs <21 FEB 2006>

February 21st 2006 PDT

HST 1 20580U 90037B 06051.45917610 .00000411 00000-0 19293-4 0 5506 2 20580 28.4680 90.7772 0003598 28.0038 332.0786 14.99967051667552 ISS 1 25544U 98067A 06052.34767361 .00013949 00000-0 97127-4 0 3934 2 25544 51.6421 63.2734 0007415 308.6263 249.9177 15.74668600414901 CHANDRA 1 25867U 99040B 06051.41666667 .00000000 00000-0 00000+0 0 8925 2 25867 58.8126 99.1855 5726557 293.1355 0.0942 0.37796747 1211 FLOATING POTENTIAL PROBE 1 28 ...Continue Reading

Current TLEs <17 FEB 2006>

February 17th 2006 PDT

HST 1 20580U 90037B 06047.53346450 .00000373 00000-0 16291-4 0 5476 2 20580 28.4669 116.3735 0003574 339.8901 20.1549 14.99964456666961 ISS 1 25544U 98067A 06048.41057870 .00011335 00000-0 80169-4 0 3670 2 25544 51.6420 83.5080 0007484 291.9870 253.6691 15.74547456414282 CHANDRA 1 25867U 99040B 06046.12500000 .00000000 00000-0 00000+0 0 8903 2 25867 58.7842 99.3337 5719892 293.2015 359.6241 0.37797514 1218 FLOATING POTENTIAL PROBE 1 28 ...Continue Reading

Current TLEs <11 FEB 2006>

February 11th 2006 PDT

HST 1 20580U 90037B 06041.54508236 .00000445 00000-0 21884-4 0 5433 2 20580 28.4660 155.4038 0003772 277.1913 82.8246 14.99962144666061 ISS 1 25544U 98067A 06042.50957176 .00010107 00000-0 71617-4 0 3283 2 25544 51.6444 113.8305 0008529 263.6886 291.4369 15.74651218413350 CHANDRA 1 25867U 99040B 06040.83333333 .00000000 00000-0 00000+0 0 8885 2 25867 58.8093 99.3982 5707480 293.3932 359.1628 0.37784836 1219 FLOATING POTENTIAL PROBE 1 28 ...Continue Reading

Current TLEs <08 FEB 2006>

February 8th 2006 PDT

HST 1 20580U 90037B 06038.61742880 .00000433 00000-0 20937-4 0 5415 2 20580 28.4656 174.4870 0003906 247.5360 112.4817 14.99960264665623 ISS 1 25544U 98067A 06039.04754630 .00012267 00000-0 86242-4 0 3063 2 25544 51.6431 131.6231 0008900 250.2399 106.7655 15.74576017412804 CHANDRA 1 25867U 99040B 06038.20833333 .00000000 00000-0 00000+0 0 8877 2 25867 58.8017 99.4102 5708439 293.5050 1.7480 0.37791053 1213 FLOATING POTENTIAL PROBE 1 28 ...Continue Reading

Current TLEs <31 JAN 2006>

January 31st 2006 PDT

HST 1 20580U 90037B 06030.63291358 .00000551 00000-0 30254-4 0 5355 2 20580 28.4655 226.5276 0004116 166.9224 193.1703 14.99956737664425 ISS 1 25544U 98067A 06031.84003270 .00010613 00000-0 75841-4 0 2593 2 25544 51.6437 168.6570 0009319 218.2563 298.0884 15.74377303411678 CHANDRA 1 25867U 99040B 06030.25000000 .00000000 00000-0 00000+0 0 8848 2 25867 58.7476 99.6450 5697731 293.5512 358.4413 0.37786914 1212 FLOATING POTENTIAL PROBE 1 28 ...Continue Reading

Current TLEs <29 JAN 2006>

January 29th 2006 PDT

HST 1 20580U 90037B 06028.90293207 .00000534 00000-0 28901-4 0 5343 2 20580 28.4685 237.8261 0003816 149.5849 210.4962 14.99955281664167 ISS 1 25544U 98067A 06029.48268122 .00013031 00000-0 92273-4 0 2437 2 25544 51.6430 180.7663 0009471 208.7523 257.9172 15.74330014411300 CHANDRA 1 25867U 99040B 06027.62500000 .00000000 00000-0 00000+0 0 8839 2 25867 58.7583 99.6469 5688774 293.6928 1.0166 0.37780191 1217 FLOATING POTENTIAL PROBE 1 28 ...Continue Reading
  • This mailing list is a public mailing list - anyone may join or leave, at any time.
  • This mailing list is announce-only.

International Space Station (ISS) / Hubble Space Telescope (HST) / Chandra X-Ray Observatory Orbital Data via EMAIL

Privacy Policy:

Private list